Regional Weather Roundup
Issued by NWS

Home | Current Version | Previous Version | Graphics & Text | Print | Product List | Glossary Off
Versions: 1 2 3 4 5 6 7 8 9 10 11 12 13 14 15 16 17 18 19 20 21 22 23 24 25 26 27 28 29 30 31 32 33 34 35 36 37 38 39 40 41 42 43 44 45 46 47 48 49 50

000
ASUS43 KMPX 230001
RWRMN
WEATHER ROUNDUP FOR MINNESOTA
NATIONAL WEATHER SERVICE TWIN CITIES/CHANHASSEN MN
700 PM CDT SUN APR 22 2018


NOTE: "FAIR" INDICATES FEW OR NO CLOUDS BELOW 12,000 FEET WITH NO
SIGNIFICANT WEATHER AND/OR OBSTRUCTIONS TO VISIBILITY. N/A MEANS
CURRENT SKY AND/OR WEATHER CONDITIONS ARE NOT AVAILABLE.

MNZ060>063-068>070-230100-
   Twin Cities Metro

CITY           SKY/WX    TMP DP  RH WIND       PRES   REMARKS
TWIN CITIES    FAIR      62  36  37 S7        30.24S
6HR MIN TEMP:  58; 6HR MAX TEMP:  64;

ST PAUL        FAIR      61  36  39 S8        30.24F
BLAINE         MOSUNNY   63  34  34 SE6       30.23F
LAKEVILLE      FAIR      57  37  47 S5        30.25S
EDEN PRAIRIE   FAIR      61  38  42 S8        30.23S
6HR MIN TEMP:  58; 6HR MAX TEMP:  63;

SOUTH ST PAUL  FAIR      62  33  34 CALM      30.24S
LAKE ELMO      FAIR      61  37  41 S5        30.25S
$$
MNZ001>005-007-008-013>017-022>024-027-028-230100-
   Northwest Minnesota

CITY           SKY/WX    TMP DP  RH WIND       PRES   REMARKS
BEMIDJI        FAIR      60  32  34 SW15      30.17S
HALLOCK        FAIR      61  46  59 S16       30.08F
ROSEAU         CLOUDY    57  45  62 SW13      30.11S
WARROAD        FAIR      57  45  62 SW12G18   30.11F
THIEF RVR FALL FAIR      60  43  53 SW15      30.14F
CROOKSTON      FAIR      61  43  51 SW16      30.14F
FOSSTON        FAIR      57  39  51 S13       30.16F
DETROIT LAKES  FAIR      59  36  41 S12       30.20S
MOORHEAD       FAIR      63  39  42 S17       30.17S
PARK RAPIDS    FAIR      60  35  39 W10       30.19F
MAHNOMEN       FAIR      59  39  46 S17       30.17S
$$
MNZ006-009>011-018-025>026-230100-
   North Central Minnesota

CITY           SKY/WX    TMP DP  RH WIND       PRES   REMARKS
BAUDETTE       FAIR      59  40  49 W13G22    30.12S
FLAG ISLAND    PTSUNNY   52  36  54 SW15      30.08S
INTL FALLS     FAIR      62  32  32 SW10      30.12F
6HR MIN TEMP:  59; 6HR MAX TEMP:  64;

WASKISH        FAIR      52  36  54 W9G17     30.15F
BIG FORK       FAIR      59  34  38 SW9       30.17F
LONGVILLE      FAIR      61  30  31 SW7       30.20S
GRAND RAPIDS   FAIR      59  31  34 SW7       30.22S
CRANE LAKE     FAIR      59  21  23 SW6       30.18F
ORR            FAIR      61  21  21 SW9       30.15F
COOK           FAIR      59  28  31 SW9       30.19S
WALKER         FAIR      60  31  34 W10       30.18S
$$
MNZ012-019>021-037-230100-
   Northeast Minnesota

CITY           SKY/WX    TMP DP  RH WIND       PRES   REMARKS
DULUTH         FAIR      58  32  37 S9        30.21F
6HR MIN TEMP:  57; 6HR MAX TEMP:  61;

ELY            FAIR      59  27  29 SW7       30.18S
HIBBING        FAIR      58  27  30 S8        30.19F
EVELETH        FAIR      58  27  29 SW12      30.21S
DULUTH HARBOR  FAIR      39  32  75 CALM      30.25S
TWO HARBORS    FAIR      59  32  36 CALM      30.21S
SILVER BAY     FAIR      52  19  28 S5        30.21S
GRAND MARAIS     N/A     40  29  64 CALM      30.23F
G MARAIS ARPRT FAIR      48  18  29 S6        30.23S
$$
MNZ029>031-032-039>041-046>048-054>057-064-230100-
   West Central Minnesota

CITY           SKY/WX    TMP DP  RH WIND       PRES   REMARKS
FERGUS FALLS   FAIR      57  39  51 S14       30.18S
WHEATON        SUNNY     57  36  44 S14       30.22F
MORRIS         SUNNY     57  39  51 S13       30.22S
ALEXANDRIA     FAIR      60  39  45 S13       30.23S
ELBOW LAKE     FAIR      56  40  53 W12       30.23R
WADENA         FAIR      57  37  47 S10       30.21S
GLENWOOD       FAIR      57  39  51 S10       30.24S
APPLETON       SUNNY     57  37  47 S6        30.23S
BENSON         SUNNY     57  39  51 SW9       30.25S
ORTONVILLE     SUNNY     55  36  47 S7        30.22S
MADISON        SUNNY     57  43  58 S10       30.23S
WILLMAR        FAIR      57  43  58 CALM      30.26S
$$
MNZ033>034-036-042>043-049>051-058-059-230100-
   Central Minnesota

CITY           SKY/WX    TMP DP  RH WIND       PRES   REMARKS
ST CLOUD       FAIR      59  37  44 SW7       30.23F
6HR MIN TEMP:  58; 6HR MAX TEMP:  62;

SAUK CENTRE    FAIR      58  38  46 S10       30.24S
PAYNESVILLE    FAIR      58  41  51 S8        30.24S
AITKIN         FAIR      57  30  35 S7        30.21S
PINE RIVER     FAIR      57  34  41 SW8       30.23S
BRAINERD       FAIR      61  32  33 S12       30.22S
STAPLES        FAIR      57  32  38 S7        30.22S
LONG PRAIRIE   FAIR      57  37  47 S6        30.23S
LITTLE FALLS   FAIR      59  23  25 SW6       30.23S
LITCHFIELD     FAIR      61  39  44 CALM      30.24F
BUFFALO        FAIR      60  35  38 SE3       30.24F
MAPLE LAKE     FAIR      61  39  45 S3        30.25S
HUTCHINSON     FAIR      59  43  54 S5        30.25S
$$
MNZ037-044-045-052-053-230100-
   East Central Minnesota

CITY           SKY/WX    TMP DP  RH WIND       PRES   REMARKS
PRINCETON      FAIR      63  32  31 SW5       30.24S
MORA           FAIR      59  30  33 CALM      30.25S
CAMBRIDGE      FAIR      64  39  39 S3        30.24S
RUSH CITY      FAIR      60  31  33 CALM      30.24F
MOOSE LAKE     FAIR      61  32  33 S8        30.21F
HINCKLEY       FAIR      59  36  41 S6        30.24S
CLOQUET        FAIR      59  25  27 SW7       30.22F
MCGREGOR       FAIR      59  32  36 S9        30.23S
$$
MNZ071>073-080-081-089-090-097-098-230100-
   Southwest Minnesota

CITY           SKY/WX    TMP DP  RH WIND       PRES   REMARKS
MONTEVIDEO     SUNNY     57  37  47 SW8       30.24S
GRANITE FALLS  SUNNY     56  41  57 SE10      30.25S
CANBY          SUNNY     54  38  54 SE8       30.24S
MARSHALL       SUNNY     53  38  56 S10       30.23F
REDWOOD FALLS  SUNNY     55  42  61 S9        30.23F
OLIVIA         SUNNY     55  39  54 S6        30.23F
PIPESTONE      SUNNY    N/A N/A N/A SE8       30.22S
WINDOM         SUNNY     52  28  40 E7        30.22F
WORTHINGTON      N/A     51  39  63 E8        30.22S
JACKSON        SUNNY     46  36  66 E6        30.23F
TRACY          SUNNY     51  40  64 SE7       30.23F
SLAYTON        SUNNY     48  40  71 SE9       30.23S
$$
MNZ065>067-074>077-082>085-091>093-230100-
   South Central Minnesota

CITY           SKY/WX    TMP DP  RH WIND       PRES   REMARKS
MANKATO        FAIR      57  39  51 SE7       30.24F
NEW ULM        SUNNY     55  39  54 S6        30.23F
ST JAMES       SUNNY     50  39  66 E3        30.25S
FAIRMONT       SUNNY     47  38  71 E7        30.24
GLENCOE        FAIR      60  41  50 CALM      30.23F
OWATONNA       FAIR      57  39  51 SE8       30.24S
WASECA         FAIR      55  41  58 SE5       30.25S
ALBERT LEA     FAIR      55  34  44 E6        30.24F
$$
MNZ078>079-086>088-094>096-230100-
   Southeast Minnesota

CITY           SKY/WX    TMP DP  RH WIND       PRES   REMARKS
ROCHESTER      FAIR      57  38  48 MISG      30.24F
6HR MIN TEMP:  54; 6HR MAX TEMP:  60;

RED WING       FAIR      63  27  25 SE3       30.23S
STANTON        FAIR      60  36  40 SE5       30.23S
DODGE CENTER   FAIR      57  39  51 SE6       30.25S
WINONA         FAIR      61  30  31 SE7       30.23S
AUSTIN         FAIR      57  43  58 E5        30.24F
PRESTON        FAIR      58  33  39 E5        30.25F
$$
ABBREVIATIONS USED IN REMARKS
   TC - TEMPERATURES IN CELSIUS
  WCI - WIND CHILL INDEX
   HX - HEAT INDEX
  VSB - VISIBILITY
$$



USA.gov is the U.S. government's official web portal to all federal, state and local government web resources and services.